Location: Unspecified
(0.0000°N, 0.0000°E)
Time: 11:30:05
(UTC-04:00)

N. Korean satellite - Visible Passes

Search period start: 20 September 2021 00:00
Search period end: 30 September 2021 00:00
Orbit: 448 x 498 km, 97.3° (Epoch: 19 September)

Date Brightness Start Highest point End Pass type
(mag) Time Alt. Az. Time Alt. Az. Time Alt. Az.
20 Sep 8.4 00:30:31 10° NE 00:33:46 32° ESE 00:37:03 10° SSE visible
21 Sep 10.0 00:04:44 10° E 00:06:07 12° ESE 00:07:31 10° SE visible
22 Sep 6.7 01:07:53 10° N 01:11:23 50° W 01:14:56 10° SSW visible
23 Sep 7.6 00:40:13 10° NNE 00:43:43 49° E 00:47:15 10° S visible
24 Sep 9.6 00:13:36 10° ENE 00:16:03 17° ESE 00:18:30 10° SE visible
25 Sep 7.2 01:18:01 10° NNW 01:21:18 34° W 01:24:38 10° SW visible
26 Sep 6.7 00:50:00 10° NNE 00:53:37 76° ESE 00:57:16 10° S visible
27 Sep 9.0 00:22:54 10° NE 00:25:55 25° ESE 00:28:57 10° SSE visible
29 Sep 6.5 00:59:50 10° N 01:03:27 71° W 01:07:07 10° SSW visible
